FW4659 Weather Reports


Display with metric or nautical units.
time (UTC)temp
F
wind
direction
speed
MPH
gust
MPH
rain 1hr
in
rain 24hr
in
rain mn
in
humidity
%
barometer
mb
20260503215446 88 262 1.0 8.0 0.00 0.00 0.00 38 1007.9
20260503214952 88 204 0.0 4.0 0.00 0.00 0.00 36 1007.9
20260503214437 88 208 0.0 5.0 0.00 0.00 0.00 40 1008.0
20260503213943 88 176 1.0 5.0 0.00 0.00 0.00 39 1008.1
20260503213440 88 59 0.0 7.0 0.00 0.00 0.00 39 1008.2
20260503212934 87 153 0.0 7.0 0.00 0.00 0.00 43 1008.3
20260503212153 87 283 1.0 7.0 0.00 0.00 0.00 43 1008.3
20260503211418 87 300 1.0 6.0 0.00 0.00 0.00 46 1008.4
20260503210910 87 260 0.0 5.0 0.00 0.00 0.00 44 1008.5
20260503210414 86 197 0.0 6.0 0.00 0.00 0.00 46 1008.5
20260503205630 86 243 0.0 6.0 0.00 0.00 0.00 44 1008.6
20260503205113 85 19 1.0 7.0 0.00 0.00 0.00 45 1008.7
20260503204323 85 10 1.0 7.0 0.00 0.00 0.00 46 1008.8
20260503203819 85 345 1.0 7.0 0.00 0.00 0.00 48 1008.9
20260503203315 85 87 0.0 3.0 0.00 0.00 0.00 44 1008.9
20260503202803 85 86 0.0 3.0 0.00 0.00 0.00 47 1008.9
20260503202314 85 87 0.0 3.0 0.00 0.00 0.00 49 1009.0
20260503201817 85 86 0.0 3.0 0.00 0.00 0.00 46 1009.1
20260503201327 86 87 0.0 4.0 0.00 0.00 0.00 46 1009.2
20260503200817 85 80 0.0 4.0 0.00 0.00 0.00 47 1009.2
20260503200310 85 81 0.0 4.0 0.00 0.00 0.00 47 1009.2
20260503195811 85 80 0.0 4.0 0.00 0.00 0.00 50 1009.3
20260503195313 84 73 0.0 4.0 0.00 0.00 0.00 49 1009.4
20260503194813 84 65 0.0 4.0 0.00 0.00 0.00 49 1009.5
20260503194318 84 44 0.0 4.0 0.00 0.00 0.00 49 1009.6
20260503193816 84 38 0.0 4.0 0.00 0.00 0.00 49 1009.5
20260503193325 84 86 0.0 4.0 0.00 0.00 0.00 51 1009.6
20260503192819 83 84 0.0 5.0 0.00 0.00 0.00 53 1009.6
20260503192309 83 86 0.0 5.0 0.00 0.00 0.00 51 1009.7
20260503191756 82 85 0.0 5.0 0.00 0.00 0.00 52 1009.8
20260503191255 82 90 0.0 5.0 0.00 0.00 0.00 51 1009.8
20260503190747 82 75 0.0 4.0 0.00 0.00 0.00 53 1009.9
20260503190014 82 75 0.0 3.0 0.00 0.00 0.00 53 1009.9
20260503185505 81 75 0.0 3.0 0.00 0.00 0.00 57 1010.0
20260503185014 81 74 0.0 2.0 0.00 0.00 0.00 54 1010.0
20260503184457 81 74 0.0 1.0 0.00 0.00 0.00 57 1010.0
20260503184003 80 74 0.0 0.0 0.00 0.00 0.00 55 1010.2
20260503183502 80 74 0.0 4.0 0.00 0.00 0.00 58 1010.2
20260503183008 80 26 0.0 2.0 0.00 0.00 0.00 58 1010.2
20260503182517 80 26 0.0 4.0 0.00 0.00 0.00 57 1010.2
20260503182020 80 26 0.0 4.0 0.00 0.00 0.00 58 1010.3
20260503181518 79 26 0.0 4.0 0.00 0.00 0.00 58 1010.2
20260503181014 78 26 0.0 4.0 0.00 0.00 0.00 59 1010.2
20260503180513 78 277 0.0 3.0 0.00 0.00 0.00 58 1010.3
20260503180016 78 277 0.0 3.0 0.00 0.00 0.00 59 1010.2
20260503175501 77 235 0.0 2.0 0.00 0.00 0.00 60 1010.3
20260503175009 77 235 0.0 2.0 0.00 0.00 0.00 61 1010.3
20260503174506 77 231 0.0 2.0 0.00 0.00 0.00 61 1010.4
20260503174002 76 231 0.0 2.0 0.00 0.00 0.00 63 1010.4
20260503173511 75 236 0.0 2.0 0.00 0.00 0.00 66 1010.5
20260503172746 74 236 0.0 7.0 0.00 0.00 0.00 67 1010.5
20260503172241 73 236 1.0 7.0 0.00 0.00 0.00 69 1010.6
20260503171736 71 236 2.0 7.0 0.00 0.00 0.00 71 1010.7
20260503171227 70 238 2.0 7.0 0.00 0.00 0.00 72 1010.5
20260503170737 69 248 2.0 4.0 0.00 0.00 0.00 73 1010.6
20260503160126 66 25 0.0 1.0 0.00 0.00 0.00 76 1010.9
20260503150338 63 25 0.0 0.0 0.00 0.00 0.00 77 1010.8
20260503131217 63 25 1.0 2.0 0.00 0.00 0.00 73 1010.3
20260503130719 63 25 1.0 2.0 0.00 0.00 0.00 75 1010.2
20260503130220 62 25 0.0 2.0 0.00 0.00 0.00 77 1010.3
20260503120157 61 25 0.0 2.0 0.00 0.00 0.00 82 1010.6
20260503110605 61 25 0.0 0.0 0.00 0.00 0.00 84 1011.0
20260503110107 61 25 0.0 0.0 0.00 0.00 0.00 84 1011.0
20260503081240 66 25 0.0 1.0 0.00 0.00 0.00 70 1011.1
20260503080728 65 25 0.0 1.0 0.00 0.00 0.00 70 1011.1
20260503080237 65 25 0.0 3.0 0.00 0.00 0.00 70 1011.1
20260503072714 64 23 0.0 5.0 0.00 0.00 0.00 73 1011.1
20260503072201 63 23 0.0 5.0 0.00 0.00 0.00 73 1011.2
20260503071703 63 24 0.0 4.0 0.00 0.00 0.00 73 1011.1
20260503071155 63 24 0.0 1.0 0.00 0.00 0.00 73 1011.2
20260503070637 63 24 0.0 0.0 0.00 0.00 0.00 73 1011.4
20260503070144 63 24 0.0 0.0 0.00 0.00 0.00 73 1011.5
20260503054631 65 24 0.0 0.0 0.00 0.00 0.00 75 1011.9
20260503054131 65 24 0.0 0.0 0.00 0.00 0.00 71 1012.0
20260503053635 65 24 0.0 0.0 0.00 0.00 0.00 71 1012.0
20260503053141 65 24 0.0 0.0 0.00 0.00 0.00 72 1012.0
20260503052640 65 24 0.0 0.0 0.00 0.00 0.00 73 1012.1
20260503052141 66 24 0.0 0.0 0.00 0.00 0.00 72 1012.0
20260503051638 66 24 0.0 3.0 0.00 0.00 0.00 71 1012.1
20260503051125 66 24 0.0 2.0 0.00 0.00 0.00 72 1012.0
20260503050617 66 24 0.0 0.0 0.00 0.00 0.00 71 1012.0
20260503050111 66 24 0.0 0.0 0.00 0.00 0.00 71 1011.9
20260503045552 66 24 0.0 0.0 0.00 0.00 0.00 71 1011.9
20260503045034 66 24 0.0 0.0 0.00 0.00 0.00 70 1011.9
20260503044527 66 24 0.0 0.0 0.00 0.00 0.00 71 1011.8
20260503043800 66 24 0.0 0.0 0.00 0.00 0.00 71 1011.7
20260503043032 66 24 1.0 3.0 0.00 0.00 0.00 71 1011.8
20260503042539 66 24 0.0 3.0 0.00 0.00 0.00 71 1011.7
20260503042032 66 24 0.0 0.0 0.00 0.00 0.00 71 1011.7
20260503041527 66 24 1.0 3.0 0.00 0.00 0.00 72 1011.6
20260503041030 67 24 1.0 3.0 0.00 0.00 0.00 70 1011.4
20260503040512 67 24 1.0 3.0 0.00 0.00 0.00 70 1011.4
20260503040017 67 24 1.0 2.0 0.00 0.00 0.00 71 1011.5
20260503035517 68 24 0.0 2.0 0.00 0.00 0.00 70 1011.4
20260503034959 68 24 1.0 1.0 0.00 0.00 0.00 69 1011.3
20260503034451 69 24 1.0 3.0 0.00 0.00 0.00 69 1011.2
20260503033937 69 24 0.0 2.0 0.00 0.00 0.00 68 1011.1
20260503033419 70 24 0.0 2.0 0.00 0.00 0.00 67 1011.1
20260503032922 70 24 0.0 3.0 0.00 0.00 0.00 65 1011.1
20260503032403 71 24 0.0 3.0 0.00 0.00 0.00 64 1010.9
20260503031906 71 23 0.0 3.0 0.00 0.00 0.00 60 1010.7
20260503031349 72 23 0.0 2.0 0.00 0.00 0.00 60 1010.4
20260503030857 72 23 0.0 2.0 0.00 0.00 0.00 59 1010.2
20260503030342 72 18 0.0 4.0 0.00 0.00 0.00 60 1010.0
20260503025620 72 19 0.0 4.0 0.00 0.00 0.00 60 1010.0
20260503025102 73 34 0.0 4.0 0.00 0.00 0.00 60 1009.9
20260503024601 73 297 0.0 0.0 0.00 0.00 0.00 59 1009.9
20260503024055 73 296 0.0 2.0 0.00 0.00 0.00 60 1009.8
20260503023604 73 296 0.0 2.0 0.00 0.00 0.00 59 1009.8
20260503023106 73 295 0.0 2.0 0.00 0.00 0.00 60 1009.8
20260503022607 74 294 0.0 3.0 0.00 0.00 0.00 59 1009.9
20260503022100 75 294 0.0 3.0 0.00 0.00 0.00 58 1009.8
20260503021548 75 9 0.0 1.0 0.00 0.00 0.00 57 1009.8
20260503021050 75 9 0.0 4.0 0.00 0.00 0.00 57 1009.8
20260503020555 75 13 0.0 4.0 0.00 0.00 0.00 57 1009.9
20260503020040 76 11 0.0 3.0 0.00 0.00 0.00 57 1009.9
20260503015536 76 12 0.0 1.0 0.00 0.00 0.00 57 1009.9
20260503015033 76 12 0.0 7.0 0.00 0.00 0.00 57 1009.9
20260503014519 76 146 0.0 5.0 0.00 0.00 0.00 57 1010.0
20260503013740 77 84 0.0 4.0 0.00 0.00 0.00 57 1009.9
20260503013230 77 86 0.0 4.0 0.00 0.00 0.00 57 1010.0
20260503012727 77 28 0.0 8.0 0.00 0.00 0.00 58 1010.0
20260503011939 77 28 0.0 3.0 0.00 0.00 0.00 56 1009.9
20260503011446 77 23 0.0 3.0 0.00 0.00 0.00 56 1010.0
20260503010932 77 23 1.0 8.0 0.00 0.00 0.00 56 1010.0
20260503010418 77 15 1.0 8.0 0.00 0.00 0.00 57 1010.0
20260503005909 77 0 0.0 5.0 0.00 0.00 0.00 56 1010.1
20260503005418 77 78 0.0 2.0 0.00 0.00 0.00 56 1010.0
20260503004925 77 78 0.0 0.0 0.00 0.00 0.00 56 1010.1
20260503004432 77 79 1.0 6.0 0.00 0.00 0.00 56 1010.1
20260503003919 78 150 0.0 6.0 0.00 0.00 0.00 55 1010.1
20260503003410 78 34 0.0 6.0 0.00 0.00 0.00 56 1010.1
20260503002625 78 28 1.0 5.0 0.00 0.00 0.00 58 1010.2
20260503002117 78 5 1.0 5.0 0.00 0.00 0.00 55 1010.1
20260503001342 78 30 1.0 5.0 0.00 0.00 0.00 56 1010.2
20260503000824 78 86 1.0 5.0 0.00 0.00 0.00 55 1010.2
20260503000319 79 90 0.0 5.0 0.00 0.00 0.00 56 1010.2
20260502235820 79 86 0.0 3.0 0.00 0.00 0.00 58 1010.2
20260502235321 78 82 0.0 6.0 0.00 0.00 0.00 58 1010.3
20260502234810 78 82 1.0 6.0 0.00 0.00 0.00 57 1010.4
20260502234309 78 80 1.0 6.0 0.00 0.00 0.00 56 1010.4
20260502233748 78 57 0.0 6.0 0.00 0.00 0.00 57 1010.5
20260502233027 78 56 1.0 6.0 0.00 0.00 0.00 59 1010.6
20260502232522 77 55 1.0 6.0 0.00 0.00 0.00 57 1010.7
20260502232020 78 286 0.0 4.0 0.00 0.00 0.00 61 1010.8
20260502231504 77 292 0.0 4.0 0.00 0.00 0.00 60 1010.9
20260502231011 77 177 1.0 4.0 0.00 0.00 0.00 59 1011.0
20260502230517 77 218 1.0 9.0 0.00 0.00 0.00 61 1011.0
20260502230025 76 221 1.0 9.0 0.00 0.00 0.00 61 1011.1
20260502225506 76 99 2.0 9.0 0.00 0.00 0.00 59 1011.2
20260502224948 76 99 1.0 9.0 0.00 0.00 0.00 58 1011.3
20260502224448 76 30 1.0 8.0 0.00 0.00 0.00 58 1011.4
20260502223703 76 351 0.0 8.0 0.00 0.00 0.00 58 1011.5
20260502223145 76 151 1.0 7.0 0.00 0.00 0.00 59 1011.6
20260502222652 75 126 1.0 7.0 0.00 0.00 0.00 58 1011.7
20260502221915 75 89 1.0 7.0 0.00 0.00 0.00 58 1011.7
20260502221421 75 184 1.0 4.0 0.00 0.00 0.00 62 1011.8
20260502220930 74 196 1.0 6.0 0.00 0.00 0.00 61 1011.8
20260502220434 74 212 1.0 6.0 0.00 0.00 0.00 60 1011.9
20260502215917 74 260 1.0 6.0 0.00 0.00 0.00 62 1012.0